FENGYUN 1C DEB

Satellite information

Favourite Embed

Satellite Type and Status

DEBRISIN ORBIT

Key statistics

Satellite FENGYUN 1C DEB at a glance.

Uptime

9714

Days in orbit

Revolutions

≈ 14.3

Per day

Orbit

SSO

Sun Synchronous Orbit

Inclination

99.4

Latest

Satellite identification and parameters

Extended collection of information and parameters for FENGYUN 1C DEB.

Object identification

Identified? True

Debris? True

Object name: FENGYUN 1C DEB

International designator: 1999-025ARR

Object number (NORAD): 30707

Object ID (CCSDS): 30707

Country: PEOPLES REPUBLIC OF CHINA (PRC)

Current information (Y/N): Y

RCS size: SMALL

Orbital parameters

Period: 100.934 minutes

Inclination: 99.4127 deg

SMA: 7180.989 km

Apoapsis: 822.837 km

Periapsis: 782.871 km

RAAN: 40.4463 deg

Eccentricy: 0.00278275

Argument of periapsis: 71.8098 deg

Mean anomaly: 317.7527 deg

Mean motion: 14.26679363 rev/day

Mean motion (dot): 0.00005494 rev/day2

B* drag term: 0.0022821178 1/REarth

Two-line elements (TLE)

Creation date: Dec. 12, 2025, 10:14 a.m.

Reference frame: TEME

Reference center: EARTH

Epoch: Dec. 12, 2025, 2:49 a.m. UTC

TLE line 0: 0 FENGYUN 1C DEB

TLE line 1: 1 30707U 99025ARR 25346.11767762 .00005494 00000-0 22821-2 0 9998

TLE line 2: 2 30707 99.4127 40.4463 0027828 71.8098 317.7527 14.26679363967946

Live tracking on map

Real-time ground track for satellite FENGYUN 1C DEB.

In-orbit conjunctions

A list of the most updated potential collisions computed for object FENGYUN 1C DEB.

Target Orbit TCA Probability of collision Miss distance Type
COSMOS 2251 DEB LEO 2025-05-28 08:07:25 0.0001291552 196.0 (m) DEBRIS
COSMOS 2208 LEO 2025-01-06 19:25:54 0.001375854 177.0 (m) PAYLOAD
COSMOS 1275 DEB LEO 2024-10-05 16:08:15 0.0001118744 189.0 (m) DEBRIS
COSMOS 1980 LEO 2024-07-04 06:25:03 0.0002888205 239.0 (m) PAYLOAD

Associated space launch

Chinese polar orbiting meteorological satellite

FENGYUN 1C DEB was lifted into orbit during the mission ‘Long March 4B | Feng Yun 1C’, on board a Long March 4B space rocket.

The launch took place on May 10, 1999, 1:33 a.m. from Launch Complex 7.

For more information about the launch, click the button.

Launch to space Long March 4B | Feng Yun 1C
Long March 4B | Feng Yun 1C

Agency: N/A

Status: Launch Successful

Launch date: May 10, 1999, 1:33 a.m. UTC

Rocket: Long March 4B

Launch pad: Launch Complex 7

Location: Taiyuan Satellite Launch Center, People's Republic of China

...

Latest news about this satellite

There are no fresh news available about this satellite. Check back as we update our databases every day.


Newsletter sign-up

Weekly statistics, charts and insights to help you stay on top of the space industry.